Location: Newark
(10.3333°N, 37.7167°E)
Time: 18:05:55
(UTC+00:00)

STARLINK-1080 - Pass Details

Date: 04 February 2020
Orbit: 348 x 351 km, 53.0° (Epoch: 23 February)

Event Time Altitude Azimuth Distance (km) Brightness Sun altitude
Rises 17:18:19 0° 311° (NW) 2,147 7.1 -25.6°
Reaches altitude 10° 17:20:27 10° 300° (WNW) 1,306 6.1 -26.1°
Enters shadow 17:20:54 13° 295° (WNW) 1,144 5.8 -26.2°
